CDT,Max TemperatureF,Mean TemperatureF,Min TemperatureF,Max Dew PointF,MeanDew PointF,Min DewpointF,Max Humidity, Mean Humidity, Min Humidity, Max Sea Level PressureIn, Mean Sea Level PressureIn, Min Sea Level PressureIn, Max VisibilityMiles, Mean VisibilityMiles, Min VisibilityMiles, Max Wind SpeedMPH, Mean Wind SpeedMPH, Max Gust SpeedMPH,PrecipitationIn, CloudCover, Events, WindDirDegrees
2013-7-1,82,67,51,58,55,50,93,66,39,30.22,30.19,30.15,10,10,7,13,3,18,0.00,3,,9
2013-7-2,83,70,57,62,57,53,93,65,37,30.17,30.13,30.06,10,9,4,22,3,33,0.05,4,Rain-Thunderstorm,72
2013-7-3,84,70,55,63,58,55,100,73,45,30.07,30.00,29.91,10,9,6,14,4,20,0.00,1,,176
2013-7-4,84,73,62,61,58,55,78,59,40,29.92,29.86,29.79,10,10,10,26,14,35,0.00,3,,181
2013-7-5,84,76,68,66,61,55,73,62,51,29.82,29.79,29.76,10,10,10,20,12,26,T,6,Rain,187
2013-7-6,86,79,72,70,65,60,69,62,55,29.80,29.77,29.74,10,10,10,18,12,23,0.00,4,,175
2013-7-7,89,79,69,74,69,64,96,74,59,29.93,29.84,29.80,10,10,9,26,5,35,0.08,4,Rain-Thunderstorm,127
2013-7-8,87,76,64,72,68,61,100,79,57,29.99,29.94,29.87,10,10,9,13,6,24,0.00,3,Thunderstorm,90
2013-7-9,83,75,67,72,68,64,90,74,58,30.00,29.91,29.82,10,10,7,23,9,30,0.12,3,Rain-Thunderstorm,281
2013-7-10,81,71,60,65,59,55,97,70,42,30.14,30.08,30.02,10,10,9,10,4,15,0.00,2,,17
2013-7-11,83,72,61,64,60,55,90,71,51,30.09,30.00,29.91,10,10,10,23,13,31,T,1,,159
2013-7-12,91,80,68,71,66,60,76,63,48,29.93,29.87,29.80,10,10,10,29,16,38,0.00,1,,173
2013-7-13,88,81,74,72,69,65,83,66,52,29.95,29.89,29.86,10,10,10,21,11,39,0.00,5,,168
2013-7-14,77,72,66,69,66,61,93,83,73,30.16,30.06,29.94,10,10,5,21,7,29,0.06,7,Rain,108
2013-7-15,87,74,61,68,63,60,100,70,40,30.20,30.16,30.11,10,9,2,22,8,26,0.00,2,,175
2013-7-16,89,80,70,68,64,61,90,64,38,30.21,30.17,30.12,10,10,10,23,12,30,0.00,0,,190
2013-7-17,91,81,71,67,65,64,74,59,44,30.25,30.19,30.10,10,10,10,20,10,28,0.00,1,,198
2013-7-18,92,84,75,69,67,67,74,59,44,30.10,29.95,29.81,10,10,10,24,14,33,0.00,2,,202
2013-7-19,85,74,63,69,62,57,90,65,40,29.95,29.90,29.81,10,10,10,17,7,26,0.00,2,,330
2013-7-20,82,72,61,69,63,59,97,77,56,30.01,29.93,29.87,10,10,6,17,3,28,0.28,5,Rain,202
2013-7-21,85,75,65,68,65,58,97,76,54,29.91,29.83,29.76,10,10,10,17,5,22,T,4,Rain,186
2013-7-22,84,73,62,70,65,60,93,70,47,29.91,29.77,29.70,10,10,10,20,9,26,0.00,2,,300
2013-7-23,76,67,58,59,57,54,90,72,44,30.04,29.99,29.90,10,10,10,18,7,22,0.00,3,,32
2013-7-24,82,69,55,63,58,54,93,69,40,30.10,30.04,29.99,10,10,10,9,2,14,0.00,2,,282
2013-7-25,83,74,65,69,64,60,84,71,51,30.01,29.97,29.92,10,10,10,14,6,17,0.00,4,,259
2013-7-26,72,62,51,63,52,46,87,67,32,30.16,30.10,29.99,10,10,10,23,11,30,0.00,4,,342
2013-7-27,69,59,48,49,45,43,90,64,32,30.16,30.11,30.04,10,10,10,18,9,31,0.00,2,,336
2013-7-28,74,59,44,49,46,42,93,60,29,30.09,30.06,30.03,10,10,10,12,3,15,0.00,1,,50
2013-7-29,71,61,50,59,53,47,89,73,51,30.08,30.06,30.04,10,10,10,21,9,28,0.00,6,,146
2013-7-30,80,71,61,64,62,58,93,77,60,30.10,30.08,30.05,10,9,2,13,4,17,T,7,Rain,124
2013-7-31,81,69,56,62,59,56,100,76,51,30.14,30.10,30.06,10,10,8,12,3,17,0.01,3,Rain,341